Location: Helion Bumpstead
(52.0500°N, 0.4000°E)
Time: 08:02:00
(UTC+00:00)

Cosmos 2056 Rocket - Pass Details

Date: 15 November 2025
Orbit: 739 x 795 km, 74.0° (Epoch: 14 December)

Event Time Altitude Azimuth Distance (km) Brightness Sun altitude
Rises 05:21:42 0° 211° (SSW) 3,287 6.5 -17.8°
Reaches altitude 10° 05:24:07 10° 214° (SW) 2,362 5.8 -17.4°
Maximum altitude 05:29:29 68° 298° (WNW) 854 3.5 -16.6°
Drops below altitude 10° 05:34:51 10° 22° (NNE) 2,362 6.2 -15.8°
Sets 05:37:16 0° 25° (NNE) 3,288 7.0 -15.4°
